Find OneWeb SL0148

NORAD ID: 48059 Int'l Des: 2021-025 Owner: ONEWEBN Country: UK Constellation: oneweb operational
LEOCIRCULARPOLARONEWEB_TYPE

Live Position

Loading 3D Globe...

About OneWeb SL0148

Description loading...

Upcoming Passes

Passes for default location (London). Set your location on the main map for personalized predictions.

Altitude History

Loading altitude history...

Two-Line Element Set

1 48059U 21025T 26125.08120304 .00000243 00000-0 63168-3 0 9996
2 48059 87.8952 328.8189 0001651 106.7762 253.3548 13.13471452247956
Epoch: May 5, 2026 • Age: 16 hours

Current Status

Altitude 1239.7 km
Velocity 7.23 km/s
Sub-Earth Point -86.63°S, 54.53°E
Launch Date Mar 25, 2021
Age 5.1 years
Type internet

Technical Details

Classification Payload
Mass 148.00 kg
Dry Mass 140.00 kg
Total Mass 148.00 kg
Length 1.30 m
Diameter 1.00 m
Span 5.00 m
Shape Trapezoid+2 pan
Manufacturer ONEWUS
Bus Type ARROW
Phase Status In Orbit
Owner/State ONEWEBN/UK

Most Searched